Location: Bühlhof
(48.7849°N, 8.6361°E)
Time: 23:54:38
(UTC+00:00)

SPOT 1/Viking Rocket - Pass Details

Date: 19 January 2026
Orbit: 772 x 789 km, 98.2° (Epoch: 17 February)

Event Time Altitude Azimuth Distance (km) Brightness Sun altitude
Rises 16:30:53 0° 137° (SE) 3,255 6.6 -4.9°
Reaches altitude 10° 16:33:22 10° 129° (SE) 2,329 5.8 -5.3°
Maximum altitude 16:37:58 35° 65° (ENE) 1,249 4.1 -6.0°
Drops below altitude 10° 16:42:35 10° 1° (N) 2,334 5.8 -6.7°
Sets 16:45:04 0° 353° (N) 3,264 6.6 -7.1°
